FW7102 Weather Reports


time (UTC)temp
F
wind
direction
speed
knots
gust
knots
rain 1hr
in
rain 24hr
in
rain mn
in
humidity
%
barometer
mb
20260507075515 57 0 0.0 0.0 0.00 0.00 0.00 82 1016.2
20260507075008 57 0 0.0 0.0 0.00 0.00 0.00 82 1016.4
20260507074238 57 0 0.0 0.0 0.00 0.00 0.00 81 1016.4
20260507073734 57 0 0.0 0.0 0.00 0.00 0.00 81 1016.4
20260507073234 58 0 0.0 0.0 0.00 0.00 0.00 81 1016.3
20260507073005 58 0 0.0 0.0 0.00 0.00 0.00 81 1016.4
20260507072234 58 0 0.0 0.0 0.00 0.00 0.00 81 1016.4
20260507071735 58 0 0.0 0.0 0.00 0.00 0.00 81 1016.3
20260507071233 58 0 0.0 0.0 0.00 0.00 0.00 80 1016.4
20260507070731 58 0 0.0 0.0 0.00 0.00 0.00 80 1016.4
20260507070230 58 0 0.0 0.0 0.00 0.00 0.00 80 1016.4
20260507065725 58 0 0.0 0.0 0.00 0.00 0.00 80 1016.5
20260507065225 58 0 0.0 0.0 0.00 0.00 0.00 79 1016.5
20260507064725 59 0 0.0 0.0 0.00 0.00 0.00 78 1016.6
20260507064223 59 0 0.0 0.0 0.00 0.00 0.00 78 1016.7
20260507063722 59 0 0.0 0.9 0.00 0.00 0.00 77 1016.7
20260507063454 59 0 0.0 0.9 0.00 0.00 0.00 77 1016.7
20260507062722 59 0 0.0 0.0 0.00 0.00 0.00 77 1016.7
20260507062218 60 0 0.0 0.0 0.00 0.00 0.00 77 1016.6
20260507061948 60 0 0.0 0.0 0.00 0.00 0.00 76 1016.6
20260507061217 60 0 0.0 0.0 0.00 0.00 0.00 76 1016.7
20260507060718 60 0 0.0 0.9 0.00 0.00 0.00 75 1016.6
20260507060216 61 0 0.0 0.9 0.00 0.00 0.00 75 1016.6
20260507055711 61 0 0.0 0.9 0.00 0.00 0.00 74 1016.7
20260507054711 62 0 0.0 0.0 0.00 0.00 0.00 73 1016.6
20260507054442 62 0 0.0 0.0 0.00 0.00 0.00 72 1016.7
20260507053942 62 0 0.0 0.9 0.00 0.00 0.00 72 1016.7
20260507053205 62 0 0.0 0.9 0.00 0.00 0.00 72 1016.7
20260507052705 62 0 0.0 1.7 0.00 0.00 0.00 71 1016.6
20260507052205 62 0 0.9 3.5 0.00 0.00 0.00 71 1016.5
20260507051933 62 0 0.9 3.5 0.00 0.00 0.00 71 1016.5
20260507051201 63 0 1.7 3.5 0.00 0.00 0.00 71 1016.6
20260507050701 63 0 0.9 3.5 0.00 0.00 0.00 71 1016.5
20260507050201 63 0 0.9 3.5 0.00 0.00 0.00 71 1016.5
20260507045700 63 0 0.9 4.3 0.00 0.00 0.00 70 1016.4
20260507045155 63 0 1.7 4.3 0.00 0.00 0.00 70 1016.4
20260507044655 63 0 1.7 3.5 0.00 0.00 0.00 70 1016.4
20260507044154 64 0 1.7 3.5 0.00 0.00 0.00 69 1016.4
20260507043649 64 0 1.7 3.5 0.00 0.00 0.00 69 1016.4
20260507043150 64 0 2.6 3.5 0.00 0.00 0.00 69 1016.4
20260507042649 64 0 1.7 4.3 0.00 0.00 0.00 69 1016.3
20260507042144 64 0 1.7 4.3 0.00 0.00 0.00 68 1016.3
20260507041913 64 0 1.7 4.3 0.00 0.00 0.00 68 1016.4
20260507041143 65 0 2.6 4.3 0.00 0.00 0.00 67 1016.3
20260507040637 65 0 2.6 4.3 0.00 0.00 0.00 66 1016.2
20260507040137 65 0 1.7 5.2 0.00 0.00 0.00 66 1016.2
20260507035631 65 0 1.7 5.2 0.00 0.00 0.00 65 1016.1
20260507035403 65 0 1.7 3.5 0.00 0.00 0.00 65 1016.0
20260507034630 65 0 0.9 3.5 0.00 0.00 0.00 65 1016.0
20260507034130 65 0 0.9 4.3 0.00 0.00 0.00 66 1015.9
20260507033627 65 0 0.9 4.3 0.00 0.00 0.00 67 1015.9
20260507033127 66 0 0.9 4.3 0.00 0.00 0.00 67 1015.9
20260507032626 66 0 0.9 4.3 0.00 0.00 0.00 67 1015.8
20260507032126 66 0 1.7 5.2 0.00 0.00 0.00 67 1015.7
20260507031853 66 0 1.7 5.2 0.00 0.00 0.00 66 1015.7
20260507031121 66 0 0.9 3.5 0.00 0.00 0.00 65 1015.6
20260507030621 67 0 0.9 5.2 0.00 0.00 0.00 65 1015.6
20260507030115 67 0 2.6 7.8 0.00 0.00 0.00 63 1015.6
20260507025612 67 0 3.5 7.8 0.00 0.00 0.00 63 1015.5
20260507025113 67 0 2.6 7.8 0.00 0.00 0.00 63 1015.5
20260507024114 68 0 2.6 7.8 0.00 0.00 0.00 62 1015.3
20260507023107 68 0 2.6 5.2 0.00 0.00 0.00 61 1015.3
20260507022606 69 0 2.6 7.0 0.00 0.00 0.00 60 1015.1
20260507022102 69 0 2.6 7.0 0.00 0.00 0.00 60 1015.1
20260507021600 70 0 2.6 7.8 0.00 0.00 0.00 59 1015.1
20260507021102 70 0 2.6 7.8 0.00 0.00 0.00 58 1015.1
20260507020555 71 0 3.5 7.8 0.00 0.00 0.00 58 1014.9
20260507020054 71 0 2.6 7.8 0.00 0.00 0.00 57 1015.1
20260507015826 71 0 2.6 7.0 0.00 0.00 0.00 57 1014.9
20260507015051 71 0 3.5 7.8 0.00 0.00 0.00 57 1014.9
20260507014548 71 0 3.5 8.7 0.00 0.00 0.00 56 1014.8
20260507014049 72 0 4.3 8.7 0.00 0.00 0.00 56 1014.8
20260507013819 72 0 3.5 8.7 0.00 0.00 0.00 55 1014.8
20260507013318 73 0 3.5 9.6 0.00 0.00 0.00 55 1014.7
20260507012543 73 0 3.5 9.6 0.00 0.00 0.00 54 1014.7
20260507012043 73 0 3.5 9.6 0.00 0.00 0.00 54 1014.7
20260507011814 74 0 4.3 9.6 0.00 0.00 0.00 53 1014.6
20260507011043 74 0 4.3 9.6 0.00 0.00 0.00 52 1014.6
20260507010542 74 0 4.3 10.4 0.00 0.00 0.00 52 1014.5
20260507010314 74 0 3.5 10.4 0.00 0.00 0.00 51 1014.5
20260507005542 75 0 3.5 7.8 0.00 0.00 0.00 51 1014.5
20260507005041 75 0 4.3 8.7 0.00 0.00 0.00 51 1014.4
20260507004540 75 0 3.5 9.6 0.00 0.00 0.00 51 1014.4
20260507004040 75 0 3.5 9.6 0.00 0.00 0.00 51 1014.5
20260507003538 75 0 3.5 10.4 0.00 0.00 0.00 49 1014.5
20260507003308 75 0 4.3 10.4 0.00 0.00 0.00 49 1014.5
20260507002536 76 0 3.5 9.6 0.00 0.00 0.00 49 1014.4
20260507001533 75 0 4.3 10.4 0.00 0.00 0.00 50 1014.4
20260507001032 76 0 4.3 10.4 0.00 0.00 0.00 50 1014.4
20260507000531 76 0 3.5 9.6 0.00 0.00 0.00 50 1014.4
20260507000030 76 0 3.5 9.6 0.00 0.00 0.00 50 1014.4
20260506235531 76 0 4.3 10.4 0.00 0.00 0.00 50 1014.3
20260506235030 76 0 5.2 10.4 0.00 0.00 0.00 50 1014.4
20260506234530 76 0 5.2 10.4 0.00 0.00 0.00 50 1014.3
20260506234026 76 0 5.2 10.4 0.00 0.00 0.00 48 1014.3
20260506233526 76 0 4.3 10.4 0.00 0.00 0.00 49 1014.3
20260506233026 76 0 4.3 10.4 0.00 0.00 0.00 48 1014.3
20260506232526 77 0 3.5 7.8 0.00 0.00 0.00 46 1014.4
20260506232026 77 0 4.3 9.6 0.00 0.00 0.00 47 1014.4
20260506231527 77 0 4.3 10.4 0.00 0.00 0.00 46 1014.4
20260506231258 76 0 4.3 10.4 0.00 0.00 0.00 47 1014.4
20260506230527 76 0 4.3 9.6 0.00 0.00 0.00 48 1014.5
20260506230028 76 0 5.2 10.4 0.00 0.00 0.00 47 1014.6
20260506225527 77 0 5.2 11.3 0.00 0.00 0.00 45 1014.7
20260506225028 78 0 4.3 11.3 0.00 0.00 0.00 45 1014.6
20260506224754 77 0 4.3 10.4 0.00 0.00 0.00 47 1014.6
20260506224022 77 0 4.3 11.3 0.00 0.00 0.00 46 1014.5
20260506223749 77 0 5.2 13.0 0.00 0.00 0.00 47 1014.7
20260506223018 77 0 5.2 13.0 0.00 0.00 0.00 47 1014.8
20260506222518 77 0 5.2 11.3 0.00 0.00 0.00 46 1014.7
20260506222018 77 0 5.2 13.0 0.00 0.00 0.00 48 1014.8
20260506221517 77 0 5.2 13.0 0.00 0.00 0.00 46 1014.8
20260506221012 77 0 4.3 11.3 0.00 0.00 0.00 47 1014.8
20260506220512 77 0 4.3 10.4 0.00 0.00 0.00 47 1014.9
20260506220012 76 0 3.5 9.6 0.00 0.00 0.00 48 1015.1
20260506215742 76 0 4.3 14.8 0.00 0.00 0.00 48 1015.2
20260506215012 77 0 5.2 14.8 0.00 0.00 0.00 47 1015.3
20260506214506 77 0 3.5 11.3 0.00 0.00 0.00 47 1015.3
20260506214006 77 0 3.5 10.4 0.00 0.00 0.00 49 1015.3
20260506213505 76 0 4.3 10.4 0.00 0.00 0.00 49 1015.3
20260506213006 76 0 3.5 10.4 0.00 0.00 0.00 49 1015.4
20260506212505 76 0 3.5 12.2 0.00 0.00 0.00 50 1015.5
20260506212004 76 0 4.3 12.2 0.00 0.00 0.00 48 1015.6
20260506211003 76 0 4.3 8.7 0.00 0.00 0.00 49 1015.6
20260506210504 76 0 4.3 9.6 0.00 0.00 0.00 50 1015.7
20260506210002 76 0 4.3 9.6 0.00 0.00 0.00 49 1015.7
20260506205502 76 0 3.5 9.6 0.00 0.00 0.00 48 1015.7
20260506205233 76 0 5.2 11.3 0.00 0.00 0.00 50 1015.7
20260506204458 76 0 5.2 11.3 0.00 0.00 0.00 49 1015.8
20260506203959 76 0 4.3 10.4 0.00 0.00 0.00 48 1015.8
20260506203730 76 0 3.5 10.4 0.00 0.00 0.00 46 1015.8
20260506202958 76 0 3.5 8.7 0.00 0.00 0.00 46 1015.9
20260506202458 76 0 2.6 7.8 0.00 0.00 0.00 47 1015.9
20260506201952 75 0 2.6 7.8 0.00 0.00 0.00 47 1016.0
20260506201452 75 0 3.5 7.8 0.00 0.00 0.00 47 1016.0
20260506200951 75 0 2.6 7.8 0.00 0.00 0.00 46 1016.2
20260506200450 75 0 2.6 7.0 0.00 0.00 0.00 47 1016.2
20260506195951 75 0 2.6 8.7 0.00 0.00 0.00 47 1016.4
20260506195444 75 0 3.5 8.7 0.00 0.00 0.00 48 1016.5
20260506194444 74 0 4.3 9.6 0.00 0.00 0.00 48 1016.6
20260506193938 74 0 3.5 9.6 0.00 0.00 0.00 49 1016.6
20260506193438 73 0 2.6 7.8 0.00 0.00 0.00 52 1016.7
20260506192939 73 0 2.6 8.7 0.00 0.00 0.00 52 1016.6
20260506192431 72 0 2.6 8.7 0.00 0.00 0.00 51 1016.7
20260506191932 73 0 3.5 8.7 0.00 0.00 0.00 48 1016.8
20260506191431 73 0 2.6 7.8 0.00 0.00 0.00 50 1016.8
20260506190926 73 0 2.6 7.8 0.00 0.00 0.00 51 1016.9
20260506190427 73 0 2.6 7.8 0.00 0.00 0.00 49 1016.9
20260506185926 73 0 2.6 7.0 0.00 0.00 0.00 52 1017.0
20260506185420 73 0 2.6 7.0 0.00 0.00 0.00 49 1017.1
20260506184921 73 0 3.5 7.0 0.00 0.00 0.00 49 1017.2
20260506184419 72 0 3.5 7.0 0.00 0.00 0.00 53 1017.2
20260506183913 72 0 3.5 9.6 0.00 0.00 0.00 50 1017.3
20260506183646 71 0 2.6 9.6 0.00 0.00 0.00 54 1017.3
20260506182914 70 0 2.6 5.2 0.00 0.00 0.00 53 1017.4
20260506182407 70 0 3.5 7.0 0.00 0.00 0.00 53 1017.4
20260506181907 70 0 3.5 7.8 0.00 0.00 0.00 54 1017.4
20260506181408 70 0 3.5 7.8 0.00 0.00 0.00 53 1017.5
20260506181137 70 0 2.6 7.8 0.00 0.00 0.00 54 1017.4
20260506180405 69 0 2.6 9.6 0.00 0.00 0.00 54 1017.3
20260506175900 69 0 3.5 9.6 0.00 0.00 0.00 55 1017.4
20260506175359 69 0 2.6 7.0 0.00 0.00 0.00 53 1017.4
20260506174859 69 0 1.7 3.5 0.00 0.00 0.00 55 1017.4
20260506174356 69 0 2.6 5.2 0.00 0.00 0.00 56 1017.5
20260506173856 68 0 2.6 7.0 0.00 0.00 0.00 56 1017.5
20260506173356 68 0 2.6 7.0 0.00 0.00 0.00 56 1017.5
20260506172856 68 0 1.7 7.0 0.00 0.00 0.00 55 1017.5
20260506172355 68 0 0.9 4.3 0.00 0.00 0.00 56 1017.5
20260506171850 68 0 0.0 0.0 0.00 0.00 0.00 56 1017.5
20260506171349 68 0 0.0 2.6 0.00 0.00 0.00 59 1017.5
20260506170850 67 0 0.9 5.2 0.00 0.00 0.00 60 1017.6
20260506170349 67 0 1.7 5.2 0.00 0.00 0.00 58 1017.5
20260506165850 67 0 2.6 7.0 0.00 0.00 0.00 59 1017.4
20260506165344 67 0 1.7 7.0 0.00 0.00 0.00 60 1017.5
20260506164845 67 0 0.9 3.5 0.00 0.00 0.00 59 1017.5
20260506164343 67 0 0.9 3.5 0.00 0.00 0.00 60 1017.5
20260506163842 66 0 1.7 2.6 0.00 0.00 0.00 62 1017.5
20260506163342 65 0 1.7 4.3 0.00 0.00 0.00 60 1017.6
20260506162840 65 0 1.7 4.3 0.00 0.00 0.00 62 1017.6
20260506162339 65 0 1.7 4.3 0.00 0.00 0.00 62 1017.5
20260506161840 65 0 1.7 4.3 0.00 0.00 0.00 63 1017.6
20260506161340 65 0 1.7 4.3 0.00 0.00 0.00 63 1017.6
20260506160839 65 0 1.7 4.3 0.00 0.00 0.00 63 1017.5
20260506160333 65 0 1.7 4.3 0.00 0.00 0.00 63 1017.6
20260506155833 64 0 0.9 3.5 0.00 0.00 0.00 64 1017.5
20260506155331 64 0 0.9 2.6 0.00 0.00 0.00 67 1017.6
20260506154829 64 0 0.9 3.5 0.00 0.00 0.00 66 1017.6
20260506154329 63 0 0.9 3.5 0.00 0.00 0.00 68 1017.6
20260506153829 63 0 0.9 3.5 0.00 0.00 0.00 69 1017.7
20260506153328 62 0 0.9 3.5 0.00 0.00 0.00 69 1017.7
20260506152825 62 0 0.9 3.5 0.00 0.00 0.00 71 1017.6
20260506152322 61 0 0.9 3.5 0.00 0.00 0.00 72 1017.6
20260506151821 61 0 0.9 2.6 0.00 0.00 0.00 75 1017.7
20260506150819 59 0 0.9 2.6 0.00 0.00 0.00 81 1017.6
20260506150550 58 0 0.9 2.6 0.00 0.00 0.00 82 1017.6
20260506145816 58 0 0.0 1.7 0.00 0.00 0.00 83 1017.6
20260506145316 57 0 0.0 0.9 0.00 0.00 0.00 83 1017.6
20260506145047 57 0 0.9 1.7 0.00 0.00 0.00 85 1017.6
20260506144315 56 0 0.9 2.6 0.00 0.00 0.00 86 1017.6
20260506143811 56 0 0.9 2.6 0.00 0.00 0.00 87 1017.6
20260506143312 56 0 0.9 2.6 0.00 0.00 0.00 87 1017.5
20260506142807 55 0 1.7 2.6 0.00 0.00 0.00 88 1017.5
20260506142308 55 0 0.9 2.6 0.00 0.00 0.00 89 1017.5
20260506141808 54 0 0.0 0.0 0.00 0.00 0.00 90 1017.5
20260506141308 54 0 0.0 0.0 0.00 0.00 0.00 90 1017.5
20260506140803 53 0 0.0 0.0 0.00 0.00 0.00 90 1017.5
20260506140303 53 0 0.0 0.0 0.00 0.00 0.00 90 1017.5
20260506135759 52 0 0.0 0.0 0.00 0.00 0.00 90 1017.4
20260506135530 51 0 0.0 0.0 0.00 0.00 0.00 90 1017.4
20260506134800 51 0 0.0 0.0 0.00 0.00 0.00 90 1017.4
20260506134301 51 0 0.0 0.0 0.00 0.00 0.00 90 1017.4
20260506133756 50 0 0.0 0.0 0.00 0.00 0.00 90 1017.3
20260506133255 50 0 0.0 0.0 0.00 0.00 0.00 90 1017.3
20260506132751 50 0 0.0 0.0 0.00 0.00 0.00 90 1017.2
20260506132251 50 0 0.0 0.0 0.00 0.00 0.00 90 1017.1
20260506131751 50 0 0.0 0.0 0.00 0.00 0.00 90 1017.0
20260506131519 50 0 0.0 0.0 0.00 0.00 0.00 90 1016.9
20260506130748 50 0 0.0 0.0 0.00 0.00 0.00 90 1016.9
20260506130246 50 0 0.0 0.0 0.00 0.00 0.00 90 1016.9
20260506125748 50 0 0.0 0.0 0.00 0.00 0.00 90 1016.8
20260506125517 50 0 0.0 0.0 0.00 0.00 0.00 90 1016.9
20260506124747 50 0 0.0 0.0 0.00 0.00 0.00 90 1016.8
20260506124247 50 0 0.0 0.0 0.00 0.00 0.00 90 1016.7
20260506123745 51 0 0.0 0.0 0.00 0.00 0.00 90 1016.7
20260506123244 51 0 0.0 0.0 0.00 0.01 0.00 90 1016.7
20260506122739 51 0 0.0 0.0 0.00 0.01 0.00 90 1016.7
20260506122239 51 0 0.0 0.0 0.00 0.01 0.00 90 1016.6
20260506121738 51 0 0.0 0.0 0.00 0.01 0.00 90 1016.5
20260506121234 51 0 0.0 0.0 0.00 0.01 0.00 90 1016.5
20260506120734 51 0 0.0 0.0 0.00 0.01 0.00 90 1016.5
20260506120233 51 0 0.0 0.0 0.00 0.01 0.00 90 1016.5
20260506115233 51 0 0.0 0.0 0.00 0.01 0.00 90 1016.5
20260506114959 51 0 0.0 0.0 0.00 0.01 0.00 90 1016.5
20260506114227 51 0 0.0 0.0 0.00 0.01 0.00 90 1016.5
20260506113958 51 0 0.0 0.0 0.00 0.01 0.00 90 1016.5
20260506113222 51 0 0.0 0.0 0.00 0.01 0.00 90 1016.5
20260506112951 51 0 0.0 0.0 0.00 0.01 0.00 89 1016.4
20260506112219 51 0 0.0 0.0 0.00 0.02 0.00 89 1016.4
20260506111715 51 0 0.0 0.0 0.00 0.02 0.00 90 1016.4
20260506111213 52 0 0.0 0.0 0.00 0.02 0.00 90 1016.4
20260506110713 52 0 0.0 0.0 0.00 0.02 0.00 90 1016.4
20260506110207 52 0 0.0 0.0 0.00 0.02 0.00 90 1016.4
20260506105706 52 0 0.0 0.0 0.00 0.02 0.00 89 1016.4
20260506105208 52 0 0.0 0.0 0.00 0.02 0.00 89 1016.4
20260506104701 52 0 0.0 0.0 0.00 0.03 0.00 89 1016.5
20260506104431 52 0 0.0 0.0 0.00 0.04 0.00 89 1016.5
20260506103701 52 0 0.0 0.0 0.00 0.05 0.00 89 1016.5
20260506103202 52 0 0.0 0.0 0.00 0.05 0.00 89 1016.5
20260506102700 52 0 0.0 0.0 0.00 0.06 0.00 89 1016.5
20260506102431 53 0 0.0 0.0 0.00 0.07 0.00 89 1016.4
20260506101931 53 0 0.0 0.0 0.00 0.07 0.00 89 1016.5
20260506101156 53 0 0.0 0.0 0.00 0.07 0.00 89 1016.5
20260506100655 52 0 0.0 0.0 0.00 0.07 0.00 89 1016.5
20260506100156 53 0 0.0 0.0 0.00 0.07 0.00 89 1016.5
20260506095653 52 0 0.0 0.0 0.00 0.07 0.00 90 1016.5
20260506095152 52 0 0.0 0.0 0.00 0.07 0.00 89 1016.5
20260506094647 52 0 0.0 0.0 0.00 0.08 0.00 89 1016.5
20260506094148 52 0 0.0 0.0 0.00 0.08 0.00 89 1016.5
20260506093646 52 0 0.0 0.0 0.00 0.08 0.00 89 1016.6
20260506093140 52 0 0.0 0.0 0.00 0.08 0.00 89 1016.6
20260506092641 52 0 0.0 0.0 0.00 0.08 0.00 90 1016.6
20260506092140 52 0 0.0 0.0 0.00 0.08 0.00 90 1016.6
20260506091634 52 0 0.0 0.0 0.00 0.08 0.00 89 1016.6
20260506091405 52 0 0.0 0.0 0.00 0.08 0.00 89 1016.6
20260506090635 52 0 0.0 0.0 0.00 0.08 0.00 89 1016.7
20260506090129 52 0 0.0 0.0 0.00 0.08 0.00 89 1016.7
20260506085629 52 0 0.0 0.9 0.00 0.08 0.00 89 1016.7
20260506085129 52 0 0.0 0.9 0.00 0.08 0.00 89 1016.8
20260506084623 52 0 0.0 0.9 0.00 0.08 0.00 88 1016.8
20260506084123 52 0 0.0 0.9 0.00 0.08 0.00 88 1016.8
20260506083853 52 0 0.0 0.9 0.00 0.08 0.00 88 1016.8
20260506083117 52 0 0.0 0.0 0.00 0.08 0.00 88 1016.9
20260506082617 52 0 0.0 0.0 0.00 0.08 0.00 88 1016.9
20260506082117 52 0 0.0 0.0 0.00 0.08 0.00 88 1016.9
20260506081843 52 0 0.0 0.0 0.00 0.08 0.00 88 1016.9
20260506081110 52 0 0.0 0.0 0.00 0.08 0.00 88 1017.0
20260506080610 53 0 0.0 0.0 0.00 0.08 0.00 87 1017.0
20260506080339 53 0 0.0 0.0 0.00 0.08 0.00 88 1017.0